Simultaneous Nadir Overpasses (SNOs) Predictions

Prediction of SNOs between LANDSAT-8 and NOAA-19 Satellite Orbit:

Table of predicted SNOs for the next 14.0 days since TLE Epoch: 10/31/2020
Index Date (LANDSAT-8) Time (LANDSAT-8) Lat,Lon (LANDSAT-8) SZA (LANDSAT-8 ) Date (NOAA-19) Time (NOAA-19) Lat,Lon (NOAA-19) SZA (NOAA-19 ) Distance(km) Time Diff (sec)
1 11/01/2020 19:47:48 80.03, -89.02 96.22 11/01/2020 19:46:51 80.04, -89.01 96.21 1.00 57
2 11/01/2020 20:37:15 -80.03, 78.59 83.78 11/01/2020 20:37:53 -80.01, 78.57 83.78 1.52 38
3 11/04/2020 02:10:58 80.04, 175.24 96.93 11/04/2020 02:11:05 80.03, 175.18 96.92 1.48 7
4 11/06/2020 07:44:42 -80.04, -88.18 82.40 11/06/2020 07:44:23 -80.03, -88.03 82.41 3.16 19
5 11/06/2020 08:34:08 80.04, 79.48 97.62 11/06/2020 08:35:19 80.02, 79.37 97.61 3.41 71
6 11/08/2020 13:18:25 80.04, 8.40 98.25 11/08/2020 13:17:34 80.04, 8.57 98.25 3.32 51
7 11/08/2020 14:07:52 -80.04, 176.06 81.74 11/08/2020 14:08:38 -80.03, 175.96 81.74 2.41 46
8 11/10/2020 18:52:10 -80.01, 104.69 81.19 11/10/2020 18:50:56 -80.11, 104.32 81.15 13.68 74
9 11/10/2020 19:41:35 80.04, -87.40 98.88 11/10/2020 19:41:48 80.03, -87.26 98.89 2.81 13
10 11/13/2020 01:15:19 -80.04, 9.18 80.53 11/13/2020 01:15:08 -80.05, 9.21 80.52 1.35 11
